Overview Statistics Trail Chart Weather Telemetry Raw packets
 

This is the latest recevied weather packets stored in our database for station/object M0HPP-13. If no packets are shown the sender has not sent any weather packets the latest 10 day(s).

<< 45 46 47 48 49 50 51 >>
Time Temp. Humidity Pressure Rain* Wind** Luminosity Snow
1787923086 15.56° C 99% 1002.6 hPa 0 mm - 97 W/m² -
1787922486 15° C 99% 1002.7 hPa 0 mm - 130 W/m² -
1787921886 15° C 98% 1002.7 hPa 0 mm - 186 W/m² -
1787921286 15.56° C 99% 1002.8 hPa 0 mm - 194 W/m² -
1787920686 16.11° C 99% 1002.8 hPa 0 mm - 296 W/m² -
1787920086 16.11° C 99% 1002.8 hPa 0 mm - 336 W/m² -
1787919486 15.56° C 99% 1002.9 hPa 0 mm - 257 W/m² -
1787918886 16.11° C 99% 1002.9 hPa 0 mm - 109 W/m² -
1787918286 16.11° C 99% 1003 hPa 0 mm - 170 W/m² -
1787917686 16.11° C 99% 1002.9 hPa 0 mm - 187 W/m² -
1787917086 15.56° C 99% 1003 hPa 0 mm - 220 W/m² -
1787916486 15° C 99% 1003.3 hPa 0 mm - 110 W/m² -
1787915886 15° C 99% 1003.4 hPa 0 mm - 201 W/m² -
1787915286 14.44° C 99% 1003.4 hPa 0 mm - 182 W/m² -
1787914686 14.44° C 99% 1003.5 hPa 0 mm - 117 W/m² -
1787914086 14.44° C 99% 1003.5 hPa 0 mm - 132 W/m² -
1787913486 14.44° C 99% 1003.6 hPa 0 mm - 206 W/m² -
1787912886 14.44° C 99% 1003.7 hPa 0 mm - 174 W/m² -
1787912286 14.44° C 99% 1003.8 hPa 0 mm - 193 W/m² -
1787911686 14.44° C 99% 1003.8 hPa 0 mm - 167 W/m² -
1787911086 14.44° C 99% 1004.1 hPa 0 mm - 89 W/m² -
1787910486 14.44° C 99% 1004.1 hPa 0 mm - 91 W/m² -
1787909886 14.44° C 99% 1004.2 hPa 0 mm - 128 W/m² -
1787909286 14.44° C 99% 1004.2 hPa 0 mm - 70 W/m² -
1787908686 14.44° C 99% 1004.3 hPa 0 mm - 60 W/m² -

* Rain latest hour (hover to see other rain measurements)
** Current wind speed in m/s (hover to see current wind gust speed)